Regional Weather Roundup
Issued by NWS Spokane, WA

Home | Current Version | Previous Version | Text Only | Print | Product List | Glossary On
Versions: 1 2 3 4 5 6 7 8 9 10 11 12 13 14 15 16 17 18 19 20 21 22 23 24 25 26 27 28 29 30 31 32 33 34 35 36 37 38 39 40 41 42 43 44 45 46 47 48 49 50
988
NZUS01 KOTX 290210
RWROTX
EASTERN WASHINGTON/NORTHERN IDAHO ROUNDUP
NATIONAL WEATHER SERVICE, SPOKANE WA
700 PM PDT THU APR 28 2016

Note: "fair" indicated few or no clouds below 12,000 feet with no
significant weather and/or obstructions to visibility.

...NORTHEAST WASHINGTON AND NORTHERN IDAHO PANHANDLE...

CITY           SKY/WX    TMP DP  RH WIND       PRES   REMARKS
SPOKANE INTL   MOCLDY    60  31  33 E12       29.92F
SPOKANE DOWNTO MOCLDY    63  33  32 E10       29.93S
COEUR D ALENE  CLOUDY    57  34  41 E13       29.93R
DEER PARK      MOCLDY    60  33  36 E9        29.94R
SANDPOINT      CLOUDY    55  34  44 E8        29.97S

...SOUTHEAST WASHINGTON AND SOUTHERN IDAHO PANHANDLE...

CITY           SKY/WX    TMP DP  RH WIND       PRES   REMARKS
WALLA WALLA    PTCLDY    63  42  46 SW5       29.91F
PULLMAN/MOSCOW CLOUDY    55  43  63 SE6       29.95S
LEWISTON       CLOUDY    56  49  77 E5        29.93S
LOWELL           N/A     55  44  66 CALM      29.93R

...COLUMBIA BASIN...

CITY           SKY/WX    TMP DP  RH WIND       PRES   REMARKS
EPHRATA        LGT RAIN  60  45  57 N16       29.89F
MOSES LAKE     PTCLDY    66  40  38 NW12      29.90S
TRI CITIES     CLEAR     72  39  30 S6        29.89F
HERMISTON      CLEAR     70  38  31 SW3       29.90F
PENDLETON      PTCLDY    65  36  34 NW7       29.92F

...EAST SLOPES CASCADES...

CITY           SKY/WX    TMP DP  RH WIND       PRES   REMARKS
THE DALLES     SUNNY     62  39  42 W15       29.99S
YAKIMA         PTSUNNY   67  41  38 NW13      29.92S
ELLENSBURG     PTSUNNY   57  40  52 NW33G41   29.95R
STAMPEDE PASS  CLOUDY    39  36  89 VRB5      30.05S FOG
WENATCHEE      MOSUNNY   65  41  41 NW18      29.90R
OMAK           CLOUDY    63  43  48 NW12      29.88F

...SOUTHERN BRITISH COLUMBIA...

CITY           SKY/WX    TMP DP  RH WIND       PRES   REMARKS
PENTICTON      PTSUNNY   68  37  32 W9        29.86R
CASTLEGAR      MOCLDY    66  39  37 S6        29.87F
CRANBROOK      MOCLDY    52  28  40 SE8       29.99R

...WESTERN MONTANA...

CITY           SKY/WX    TMP DP  RH WIND       PRES   REMARKS
MISSOULA       CLOUDY    49  28  44 SE9       30.00F

...NEIGHBORING CITIES...

CITY           SKY/WX    TMP DP  RH WIND       PRES   REMARKS
SEATTLE        CLOUDY    59  45  59 W7        30.08S
CALGARY        MOCLDY    46  28  49 S21G28    30.05F



USA.gov is the U.S. government's official web portal to all federal, state and local government web resources and services.